Reading, PA

12:28 AM EST on November 17, 2019 (GMT -0500)
Reading Regional-Spaatz

Weather History for KRDG - October, 2019

Change the Weather History Date:

Monday, October 21, 2019

  Actual Average Record
Temperature  
Mean Temperature 60 °F 52 °F  
Max Temperature 69 °F 63 °F 86 °F (1947)
Min Temperature 52 °F 41 °F 22 °F (1972)
Degree Days  
Heating Degree Days 4 13  
Month to date heating degree days 159 214  
Since 1 July heating degree days 175 293  
Cooling Degree Days 0 0  
Month to date cooling degree days 25 5  
Year to date cooling degree days 1239 892  
Growing Degree Days 10 (Base 50)    
Moisture  
Dew Point 51 °F    
Average Humidity 80    
Maximum Humidity 100    
Minimum Humidity 52    
Precipitation  
Precipitation 0.00 in 0.09 in 2.34 in (1904)
Month to date precipitation 2.90 2.43  
Year to date precipitation 45.13 35.73  
Sea Level Pressure  
Sea Level Pressure 30.07 in    
Wind  
Wind Speed 4 mph ()    
Max Wind Speed 10 mph    
Max Gust Speed 14 mph    
Visibility 10.0 miles    
Events      
T = Trace of Precipitation, MM = Missing Value Source: Averaged Metar Reports

Daily Weather History Graph

Daily Weather History Graph

Search for Another Location

Airport or City:

Astronomy

Oct. 21, 2019 Rise Set
Actual Time 7:20 AM EDT 6:15 PM EDT
Civil Twilight 6:53 AM EDT 6:43 PM EDT
Nautical Twilight 6:21 AM EDT 7:14 PM EDT
Astronomical Twilight 5:49 AM EDT 7:46 PM EDT
Moon No Moon Rise 2:37 PM EDT (10/21)
Length of Visible Light 11h 49m
Length of Day
10h 54m
Waning Gibbous, 48% of the Moon is Illuminated
Oct 21
Waning Gibbous
Oct 27
New
Nov 4
First Quarter
Nov 12
Full
Nov 19
Last Quarter

Hourly Weather History & Observations

Time (EDT) Temp. Dew Point Humidity Pressure Visibility Wind Dir Wind Speed Gust Speed Precip Events Conditions
12:54 AM 53.1 °F 52.0 °F 96% 30.00 in 10.0 mi North 5.8 mph - N/A   Overcast
1:54 AM 53.1 °F 52.0 °F 96% 30.02 in 10.0 mi North 6.9 mph - N/A   Overcast
2:54 AM 53.1 °F 51.1 °F 93% 30.03 in 10.0 mi NNE 6.9 mph - N/A   Overcast
3:54 AM 53.1 °F 51.1 °F 93% 30.02 in 10.0 mi North 5.8 mph - N/A   Overcast
4:54 AM 53.1 °F 50.0 °F 89% 30.04 in 10.0 mi North 8.1 mph - N/A   Overcast
5:30 AM 52.0 °F 50.0 °F 93% 30.05 in 10.0 mi NW 5.8 mph - N/A   Overcast
5:54 AM 52.0 °F 51.1 °F 97% 30.07 in 10.0 mi NW 4.6 mph - N/A   Overcast
6:54 AM 52.0 °F 50.0 °F 93% 30.08 in 10.0 mi NW 4.6 mph - N/A   Overcast
7:54 AM 52.0 °F 50.0 °F 93% 30.07 in 10.0 mi NNE 3.5 mph - N/A   Overcast
8:13 AM 53.1 °F 51.1 °F 93% 30.06 in 10.0 mi Calm Calm - N/A   Partly Cloudy
8:54 AM 55.0 °F 50.0 °F 83% 30.10 in 10.0 mi Calm Calm - N/A   Partly Cloudy
9:54 AM 55.9 °F 50.0 °F 80% 30.12 in 10.0 mi NNE 8.1 mph - N/A   Partly Cloudy
10:54 AM 59.0 °F 51.1 °F 75% 30.11 in 10.0 mi ENE 8.1 mph - N/A   Clear
11:54 AM 61.0 °F 50.0 °F 67% 30.10 in 10.0 mi Calm Calm - N/A   Clear
12:54 PM 64.0 °F 50.0 °F 60% 30.08 in 10.0 mi North 9.2 mph - N/A   Clear
1:54 PM 66.9 °F 48.9 °F 52% 30.06 in 10.0 mi NE 6.9 mph - N/A   Clear
3:54 PM 68.0 °F 50.0 °F 52% 30.06 in 10.0 mi East 3.5 mph - N/A   Clear
4:54 PM 66.9 °F 50.0 °F 54% 30.05 in 10.0 mi ESE 5.8 mph - N/A   Clear
5:54 PM 64.9 °F 51.1 °F 61% 30.06 in 10.0 mi SSE 3.5 mph - N/A   Clear
6:54 PM 61.0 °F 50.0 °F 67% 30.07 in 10.0 mi Calm Calm - N/A   Clear
7:54 PM 57.0 °F 52.0 °F 83% 30.09 in 10.0 mi Calm Calm - N/A   Clear
8:54 PM 57.0 °F 51.1 °F 81% 30.09 in 10.0 mi Calm Calm - N/A   Clear
9:54 PM 57.0 °F 50.0 °F 77% 30.11 in 10.0 mi SSE 5.8 mph - N/A   Scattered Clouds
10:05 PM 57.9 °F 50.0 °F 75% 30.09 in 10.0 mi SE 4.6 mph - N/A   Mostly Cloudy
10:54 PM 59.0 °F 54.0 °F 83% 30.11 in 10.0 mi South 5.8 mph - N/A   Overcast
11:54 PM 57.9 °F 54.0 °F 87% 30.11 in 10.0 mi South 6.9 mph - N/A   Mostly Cloudy